sat.trackr.live / text

‹ back to catalog

STARLINK-31548

NORAD 59193 · 2024-045R

PAYLOAD ACTIVE UNKNOWN

§ Identity

Operator
Country
US
Launch date
2024-03-10
Launch site
AFETR
Launch vehicle
Mass (kg)
RCS (m²)

Purposes: comms

External: N2YO · Heavens-Above · Gunter

§ Orbital elements

Epoch: 2026-09-19T19:11:33.794880Z

Period
94.27 min
Inclination
43.0040°
Eccentricity
0.0000923
Mean motion
15.27580421 rev/d
Perigee alt
482.4 km
Apogee alt
483.7 km
Semi-major
6,861.2 km
B*
3.2413e-5
RAAN
76.6866°
Arg perigee
269.7696°
Mean anomaly
90.3050°
Rev number
14,284

§ Raw data

STARLINK-315481 59193U 24045R   26262.79969670  .00000630  00000+0  32413-4 0  99982 59193  43.0040  76.6866 0000923 269.7696  90.3050 15.27580421142849

JSON: /api/v1/satellites/59193 · /tle

For live sub-satellite position, see the globe view (requires WebGL).

§ Visibility from observer

Set your observer location to see the next 7 days of passes ≥ 10°. The values pass through the URL so the page stays shareable.

No JS? Fill the form by hand. The geolocation button needs JavaScript.